JQ1YUX-13 Tokyo Ota-ku JP current weather conditions

sailwx.info

Wind from 331

Air temperature 4.4° C
Dewpoint 0.2° C

Last reported at 2014-Dec-19 20:21 UTC.
Time now 2014-Dec-19 21:38 UTC

Location: N 35°35' E 139°40'.
View on Google Maps.

See reports from other nearby stations

  
Tides and Currents Weather Stations Pressure Air Temp Water Temp Dewpoint Dewpoint Depression Visibility Wind Speed Wind Dir Waves Ship Positions
date/time (UTC)wind fromknots sea level pressurealtimeterstation pressurevisibilityair tempwater tempwave heightnotes
2014-Dec-19 20:21 331 4.4
2014-Dec-19 20:19 333 4.4
2014-Dec-19 19:51 013 4.4
2014-Dec-19 19:49 013 4.4
2014-Dec-19 19:21 011 4.4
2014-Dec-19 19:19 011 4.4
2014-Dec-19 18:51 346 0 gusting 4 4.4
2014-Dec-19 18:49 327 4.4
2014-Dec-19 18:21 328 4.4
2014-Dec-19 18:19 329 4.4
2014-Dec-19 17:51 323 4.4
2014-Dec-19 17:49 316 4.4
2014-Dec-19 17:21 349 4.4
2014-Dec-19 17:19 350 4.4
2014-Dec-19 16:51 347 4.4
2014-Dec-19 16:49 355 4.4
2014-Dec-19 16:21 330 4.4
2014-Dec-19 16:19 350 4.4
2014-Dec-19 15:51 288 4.4
2014-Dec-19 15:49 288 4.4
2014-Dec-19 15:21 288 4.4
2014-Dec-19 15:19 288 4.4
2014-Dec-19 14:51 286 3.9
2014-Dec-19 14:49 286 3.9
2014-Dec-19 14:21 286 3.9
2014-Dec-19 14:19 286 3.9
2014-Dec-19 13:51 286 4.4
2014-Dec-19 13:49 286 4.4
2014-Dec-19 13:21 279 5.0
2014-Dec-19 13:19 279 5.0
2014-Dec-19 12:51 176 6.7
2014-Dec-19 12:49 177 6.7
2014-Dec-19 12:21 177 6.7
2014-Dec-19 12:19 176 6.7
2014-Dec-19 11:51 177 6.7
2014-Dec-19 11:49 176 6.7
2014-Dec-19 11:21 178 6.7
2014-Dec-19 11:19 177 6.7
2014-Dec-19 10:51 176 6.7
2014-Dec-19 10:49 177 6.7
2014-Dec-19 10:21 176 7.2
2014-Dec-19 10:19 177 7.2
2014-Dec-19 09:51 176 7.2
2014-Dec-19 09:49 177 7.2
2014-Dec-19 09:21 177 7.8
2014-Dec-19 09:19 176 7.8
2014-Dec-19 08:51 176 7.8
2014-Dec-19 08:49 177 7.8
2014-Dec-19 08:21 177 7.8
2014-Dec-19 08:19 177 7.8
2014-Dec-19 07:51 176 8.3
2014-Dec-19 07:49 152 8.3
2014-Dec-19 07:21 180 1 gusting 5 8.3
2014-Dec-19 07:19 178 8.9
2014-Dec-19 06:51 175 9.4
2014-Dec-19 06:49 175 9.4
2014-Dec-19 06:21 169 10.0
2014-Dec-19 06:19 167 10.0
2014-Dec-19 05:51 246 10.6
2014-Dec-19 05:49 245 11.1
2014-Dec-19 05:21 191 0 gusting 2 10.6
2014-Dec-19 05:19 190 10.6
2014-Dec-19 04:51 213 11.1
2014-Dec-19 04:49 213 11.1
2014-Dec-19 04:21 189 2 gusting 4 10.6
2014-Dec-19 04:19 196 1 gusting 4 11.1
2014-Dec-19 03:51 030 10.6
2014-Dec-19 03:49 036 10.0
2014-Dec-19 03:21 028 2 gusting 3 9.4
2014-Dec-19 03:19 036 0 gusting 4 9.4
2014-Dec-19 02:51 342 3 gusting 5 8.9
2014-Dec-19 02:49 037 0 gusting 6 8.9
2014-Dec-19 02:21 041 8.9
2014-Dec-19 02:19 048 8.9
2014-Dec-19 01:51 038 8.3
2014-Dec-19 01:49 279 8.3
2014-Dec-19 01:21 281 7.8
2014-Dec-19 01:19 268 7.8
2014-Dec-19 00:51 021 7.2
2014-Dec-19 00:49 287 7.2
2014-Dec-19 00:21 043 0 gusting 3 5.0
2014-Dec-19 00:19 018 5.0
2014-Dec-18 23:51 317 2.8
2014-Dec-18 23:49 318 2.8
2014-Dec-18 23:21 318 1.1
2014-Dec-18 23:19 317 1.1
2014-Dec-18 22:51 318 0.6
2014-Dec-18 22:49 318 0.6
2014-Dec-18 22:21 318 0.6
2014-Dec-18 22:19 317 0.6
2014-Dec-18 21:51 318 0.6
2014-Dec-18 21:49 318 0.6
2014-Dec-18 21:21 317 0.6
2014-Dec-18 21:19 318 0.6
2014-Dec-18 20:51 318 0.6
2014-Dec-18 20:49 318 0.6
2014-Dec-18 20:21 318 0.6
2014-Dec-18 20:19 318 0.6
2014-Dec-18 19:51 319 1.1
2014-Dec-18 19:49 319 1.1
2014-Dec-18 19:21 318 1.1
2014-Dec-18 19:19 319 1.1
2014-Dec-18 18:51 318 1.1
2014-Dec-18 18:49 319 1.1
2014-Dec-18 18:21 318 1.1
2014-Dec-18 18:19 319 1.1
2014-Dec-18 17:51 318 1.7
2014-Dec-18 17:49 319 1.7
2014-Dec-18 17:21 319 2.2
2014-Dec-18 17:19 319 2.2
2014-Dec-18 16:51 319 2.2
2014-Dec-18 16:49 318 2.2
2014-Dec-18 16:21 318 2.8
2014-Dec-18 16:19 319 2.8
2014-Dec-18 15:51 318 2.8
2014-Dec-18 15:49 318 2.8
2014-Dec-18 15:21 318 3.3
2014-Dec-18 15:19 319 3.3
2014-Dec-18 14:51 350 4.4
2014-Dec-18 14:49 338 4.4
2014-Dec-18 14:21 333 3.9
2014-Dec-18 14:19 331 3.9
2014-Dec-18 13:51 332 0 gusting 3 3.9
2014-Dec-18 13:49 355 3.9
2014-Dec-18 13:21 332 3.9
2014-Dec-18 13:19 341 3.9
2014-Dec-18 12:51 018 3.9
2014-Dec-18 12:49 015 3.9
2014-Dec-18 12:21 023 3.9
2014-Dec-18 12:19 355 3.9
2014-Dec-18 11:51 018 3.9
2014-Dec-18 11:49 018 3.9
2014-Dec-18 11:21 024 3.9
2014-Dec-18 11:19 351 3.9
2014-Dec-18 10:51 009 4.4
2014-Dec-18 10:49 010 4.4
2014-Dec-18 10:21 342 5.0
2014-Dec-18 10:19 342 5.0
2014-Dec-18 09:51 009 5.0
2014-Dec-18 09:49 009 5.0
2014-Dec-18 09:21 009 5.6
2014-Dec-18 09:19 009 5.6
2014-Dec-18 08:51 323 3 gusting 6 6.1
2014-Dec-18 08:49 020 1 gusting 6 6.1
2014-Dec-18 08:21 256 1 gusting 4 6.1
2014-Dec-18 08:19 317 2 gusting 6 6.1
2014-Dec-18 07:51 331 0 gusting 7 6.7
2014-Dec-18 07:49 332 0 gusting 5 6.7
2014-Dec-18 07:21 016 5 gusting 10 7.2
2014-Dec-18 07:19 311 5 gusting 9 7.2
2014-Dec-18 06:51 281 2 gusting 11 8.3
2014-Dec-18 06:49 337 3 gusting 6 8.3
2014-Dec-18 05:49 009 9 gusting 15 8.9
2014-Dec-18 05:21 013 5 gusting 12 8.9
2014-Dec-18 05:19 355 9 gusting 12 8.9
2014-Dec-18 04:51 288 0 8.9
2014-Dec-18 04:49 201 0 gusting 11 8.9
2014-Dec-18 04:21 335 2 gusting 9 8.9
2014-Dec-18 04:19 355 0 gusting 2 8.9
2014-Dec-18 03:51 209 3 gusting 10 8.3
2014-Dec-18 03:49 297 1 gusting 5 8.3
2014-Dec-18 03:21 242 1 gusting 5 7.8
2014-Dec-18 03:19 292 7.8
2014-Dec-18 02:51 281 0 gusting 6 7.2
2014-Dec-18 02:49 213 7.2
2014-Dec-18 02:21 355 1 gusting 5 6.7
2014-Dec-18 02:19 092 1 gusting 5 6.7
2014-Dec-18 01:51 228 0 gusting 6 6.7
2014-Dec-18 01:49 275 6.7
2014-Dec-18 01:21 286 0 gusting 6 6.1
2014-Dec-18 01:19 190 2 gusting 6 6.1
2014-Dec-18 00:51 275 6.1
2014-Dec-18 00:49 215 6.1
2014-Dec-18 00:21 215 4.4
2014-Dec-18 00:19 214 4.4
2014-Dec-17 23:51 215 2.2
2014-Dec-17 23:49 215 2.2
2014-Dec-17 23:21 214 1.1
2014-Dec-17 23:19 214 1.1
2014-Dec-17 22:51 215 0.6
2014-Dec-17 22:49 215 0.6
2014-Dec-17 22:21 215 -0.0
2014-Dec-17 22:19 215 -0.6
2014-Dec-17 21:51 214 -0.6
2014-Dec-17 21:49 215 -0.6
2014-Dec-17 21:21 214 -0.6
2014-Dec-17 21:19 215 -0.0